This demonstration page uses our WeatherBlox Daily Observations layout. Learn more.

Left ArrowRight Arrow

Hourly Observations for June 6, 2021

Temp ( °F °C ) Dew Point ( °F °C ) Humidity (%) Winds ( mph kmh ) Pressure ( in mb ) Visibility ( mi km ) Precip ( " mm )
12:53 am 00:53 Clear 73 22.8 71 21.7 94 94 Calm 30.04 1017 10 16 0.00 0.00
1:53 am 01:53 Mostly Cloudy 74 23.3 70 21.1 88 88 Calm 30.04 1017 10 16 0.00 0.00
2:53 am 02:53 Clear 72 22.2 70 21.1 94 94 Calm 30.03 1017 10 16 0.00 0.00
3:53 am 03:53 Clear 72 22.2 71 21.7 97 97 Calm 30.03 1017 10 16 0.00 0.00
4:53 am 04:53 Clear 72 22.2 70 21.1 94 94 NE 3 6 30.03 1017 10 16 0.00 0.00
5:53 am 05:53 Clear 72 22.2 70 21.1 94 94 Calm 30.05 1018 10 16 0.00 0.00
6:53 am 06:53 Partly Cloudy with Light Rain 71 21.7 70 21.1 96 96 Calm 30.06 1018 8 13 0.00 0.00
7:53 am 07:53 Mostly Cloudy 73 22.8 70 21.1 90 90 ESE 3 6 30.08 1019 10 16 0.00 0.00
8:53 am 08:53 Partly Cloudy 74 23.3 70 21.1 88 88 Calm 30.09 1019 10 16 0.00 0.00
9:53 am 09:53 Mostly Sunny 75 23.9 70 21.1 84 84 ESE 5 7 30.10 1019 10 16 0.00 0.00
10:53 am 10:53 Partly Cloudy 78 25.6 71 21.7 79 79 SE 5 7 30.10 1019 10 16 0.00 0.00
11:42 am 11:42 Mostly Cloudy 81 27.2 71 21.7 72 72 SW 5 7 30.09 1019 10 16 0.00 0.00
11:53 am 11:53 Mostly Cloudy 81 27.2 71 21.7 72 72 WSW 6 9 30.10 1019 10 16 0.00 0.00
12:32 pm 12:32 Mostly Cloudy 81 27.2 68 20 65 65 VRB 5 7 30.08 1018 10 16 0.00 0.00
12:53 pm 12:53 Mostly Cloudy 81 27.2 69 20.6 67 67 W 6 9 30.08 1019 10 16 0.00 0.00
1:53 pm 13:53 Partly Cloudy 82 27.8 68 20 63 63 SSW 3 6 30.06 1018 10 16 0.00 0.00
2:53 pm 14:53 Partly Cloudy 83 28.3 67 19.4 59 59 WSW 5 7 30.04 1017 10 16 0.00 0.00
3:53 pm 15:53 Mostly Sunny 86 30 67 19.4 53 53 Calm 30.01 1016 10 16 0.00 0.00
4:53 pm 16:53 Sunny 87 30.6 64 17.8 46 46 SSE 7 11 29.99 1016 10 16 0.00 0.00
5:53 pm 17:53 Mostly Sunny 86 30 64 17.8 48 48 VRB 3 6 30.00 1016 10 16 0.00 0.00
6:53 pm 18:53 Mostly Cloudy 84 28.9 69 20.6 61 61 Calm 29.99 1016 10 16 0.00 0.00
7:53 pm 19:53 Mostly Cloudy 81 27.2 70 21.1 69 69 N 3 6 30.01 1016 10 16 0.00 0.00
8:53 pm 20:53 Partly Cloudy 79 26.1 70 21.1 74 74 NE 3 6 30.02 1017 10 16 0.00 0.00
9:53 pm 21:53 Cloudy 77 25 71 21.7 82 82 Calm 30.03 1017 10 16 0.00 0.00
10:53 pm 22:53 Cloudy 73 22.8 70 21.1 90 90 E 6 9 30.06 1018 10 16 0.02 0.51
11:53 pm 23:53 Mostly Cloudy 73 22.8 70 21.1 90 90 ESE 5 7 30.06 1018 10 16 0.00 0.00

Powered by AerisWeather